Location: Civry
(47.2902°N, 4.6156°E)
Time: 07:40:24
(UTC+00:00)

STARLINK-1199 - Pass Details

Date: 09 April 2020
Orbit: 548 x 550 km, 53.0° (Epoch: 03 June)

Event Time Altitude Azimuth Distance (km) Brightness Sun altitude
Rises 19:50:31 0° 296° (WNW) 2,719 9.1 -14.6°
Reaches altitude 10° 19:52:50 10° 289° (WNW) 1,822 7.6 -15.0°
Maximum altitude 19:56:43 41° 220° (SW) 807 4.5 -15.6°
Enters shadow 19:58:52 22° 163° (SSE) 1,210 4.9 -15.9°
